Regional Weather Roundup
Issued by NWS Wakefield, VA

Home | Current Version | Previous Version | Text Only | Print | Product List | Glossary Off
Versions: 1 2 3 4 5 6 7 8 9 10 11 12 13 14 15 16 17 18 19 20 21 22 23 24 25 26 27 28 29 30 31 32 33 34 35 36 37 38 39 40 41 42 43 44 45 46 47 48 49 50

000
ASUS41 KAKQ 271615
RWRAKQ

REGIONAL WEATHER ROUNDUP
NATIONAL WEATHER SERVICE WAKEFIELD VA
1200 PM EDT THU AUG 27 2015

Note: "fair" indicates few or no clouds below 12,000 feet with no
significant weather and/or obstructions to visibility. * = Denotes
station may not report precipitation (e.g., rain,snow,etc.),
thunder or fog.

VAZ042-051-052>054-056-271700-
NORTHERN VIRGINIA

CITY           SKY/WX    TMP DP  RH WIND       PRES   REMARKS
WASH NATIONAL  MOSUNNY   77  55  46 CALM      30.14F
DULLES         PTSUNNY   75  54  47 N8        30.14F
FORT BELVOIR   MOSUNNY   77  55  46 VRB6      30.14S
QUANTICO       PTSUNNY   77  56  48 NE8       30.15S
FREDERICKSBRG* SUNNY     78  56  46 N7        30.14S
STAFFORD*      SUNNY     76  54  47 NE6       30.18F
WARRENTON      MOSUNNY   78  60  53 N6        30.15S
CULPEPER*      MOSUNNY   74  56  53 N5        30.16S
MANASSAS*      SUNNY     75  55  50 NE6       30.14F
LEESBURG*      MOSUNNY   73  59  60 NW5       30.16S
WINCHESTER     MOSUNNY   73  54  49 CALM      30.15F
FRONT ROYAL*   FAIR      73  55  53 CALM      30.15F
LURAY*         CLOUDY    75  52  43 N6        30.16F
$$

VAZ048-049-060>072-079>083-271700-
CENTRAL AND SOUTH CENTRAL VIRGINIA

CITY           SKY/WX    TMP DP  RH WIND       PRES   REMARKS
RICHMOND       PTSUNNY   78  58  49 VRB7      30.14S
CHESTERFIELD*  FAIR      79  52  38 NE7       30.15S
PETERSBURG*    MOSUNNY   78  64  62 NE9       30.14F
HANOVER        SUNNY     77  59  53 VRB5      30.16S
TAPPAHANNOCK*  SUNNY     76  55  47 CALM      30.15S
QUINTON*       FAIR      74  61  63 N5        30.13F
CHARLOTTSVILLE SUNNY     74  55  51 CALM      30.15F
GORDONSVILLE*  FAIR      76  55  49 CALM      30.14F
ORANGE*        SUNNY     77  54  44 N7        30.16S
LOUISA*        SUNNY     79  54  41 N9        30.14S
BUMPASS*       FAIR      75  56  51 NW5       30.15S
FARMVILLE*     MOSUNNY   79  55  43 NE9       30.14S
CREWE*         FAIR     N/A N/A N/A E6        30.14F
FORT PICKETT*  FAIR      76  60  56 NE7       30.14F
CHASE CITY*    FAIR      79  60  51 E6        30.14F
CLARKSVILLE*   FAIR      75  55  50 NE5       30.13F
SOUTH HILL*    MOSUNNY   75  62  63 NE6       30.19F
LAWRENCEVILLE* FAIR      75  63  64 NE5       30.13F
EMPORIA*       PTSUNNY   73  63  68 NE7       30.13F
$$

VAZ088>098-271700-
SOUTHEAST VIRGINIA

CITY           SKY/WX    TMP DP  RH WIND       PRES   REMARKS
NORFOLK        PTSUNNY   78  55  44 NE14      30.11S
VIRGINIA BEACH PTSUNNY   80  59  48 NE15      30.10S
NORFOLK NAVAL  CLOUDY    79  58  48 NE14      30.13S
WEST POINT*    CLOUDY    80  57  45 NE6       30.14F
SALUDA*        FAIR      75  62  65 NW7       30.12S
NEWPORT NEWS   CLOUDY    77  60  55 E12       30.12S
LANGLEY AFB    CLOUDY    77  60  55 NE12      30.11S
FORT EUSTIS    CLOUDY    78  59  52 NE7       30.10S
WILLIAMSBURG*  CLOUDY    81  64  57 CALM      30.13F
HR EXEC AP*      N/A     79  57  47 NE6       30.13F
FRANKLIN*      CLOUDY    76  61  57 E9        30.12F
WAKEFIELD      CLOUDY    78  62  57 VRB6      30.12F
$$

VAZ020-022-025-037-045-271700-
WEST CENTRAL AND SOUTHWEST VIRGINIA

CITY           SKY/WX    TMP DP  RH WIND       PRES   REMARKS
STAUNTON*      MOSUNNY   76  55  47 S3        30.19F
WAYNESBORO*    FAIR      73  53  50 CALM      30.18S
HOT SPRINGS VA CLOUDY    62  53  73 CALM      30.24S
LYNCHBURG      PTSUNNY   74  56  53 E9        30.17F
DANVILLE       SUNNY     77  58  51 NE10      30.14F
SOUTH BOSTON*  FAIR      79  55  43 E7        30.14F
MARTINSVILLE   MOSUNNY   78  57  49 E8        30.18F
ROANOKE        CLOUDY    74  56  53 VRB7      30.18F
BLACKSBURG     MOSUNNY   70  59  68 NE6       30.22F
DUBLIN*        CLOUDY    71  59  64 E3        30.20F
MARION*        SUNNY     72  58  62 E6        30.22F
HILLSVILLE*    PTSUNNY   67  58  73 S3        30.19F
RICHLANDS*     FAIR      67  56  67 N3        30.20S
WISE*          SUNNY     68  54  60 N6        30.22S
ABINGDON*      MOSUNNY   75  56  51 CALM      30.17F
$$

MDZ021>025-VAZ099-100-271700-
SOUTHERN MARYLAND AND THE DELMARVA PENINSULA

CITY           SKY/WX    TMP DP  RH WIND       PRES   REMARKS
PATUXENT RIVER PTSUNNY   77  59  53 N9        30.13S
BAY BRIDGE APT   N/A     73  54  49 NW8       30.13S
LEONARDTOWN    MOSUNNY   73  55  53 CALM      30.15S
DOVER          MOSUNNY   75  61  62 NW6       30.10S
GEORGETOWN     CLOUDY    74  58  57 N5        30.12F
EASTON         PTSUNNY   75  59  57 N6        30.16S
CAMBRIDGE      PTSUNNY   77  59  53 CALM      30.12S
SALISBURY      CLOUDY    74  57  55 N8        30.12S
OCEAN CITY     PTSUNNY   77  57  50 NW6       30.11S
WALLOPS ISLAND CLOUDY    77  58  51 N9        30.12S
ACCOMACK*      CLOUDY    73  59  60 N8        30.12S
$$

NCZ012>017-030>032-271700-
NORTH CENTRAL AND EASTERN NORTH CAROLINA

CITY           SKY/WX    TMP DP  RH WIND       PRES   REMARKS
ROANOKE RAPIDS FAIR      73  63  68 NE7       30.11F
RALEIGH        PTSUNNY   79  59  50 NE12      30.11F
ELIZABETH CITY CLOUDY    80  64  58 NE18      30.09S
AHOSKIE*       PTSUNNY   75  62  63 N8        30.11S
EDENTON*       LGT RAIN  73  66  78 NW3       30.10R
CURRITUCK*     CLOUDY    79  60  51 NE15G21   30.10S
KILL DEVIL HLS CLOUDY    81  66  60 NE8       30.07R
MANTEO         CLOUDY    77  66  68 NE18      30.07S
CAPE HATTERAS  CLOUDY    76  71  85 NE8       30.04R
TARBORO*       CLOUDY    77  63  61 NE8       30.10F
GOLDSBORO      CLOUDY    75  65  70 NE15G22   30.06S
WASHINGTON     RAIN      73  65  78 NE9       30.08S
GREENVILLE     LGT RAIN  72  66  83 NE5       30.11R
NEW BERN       CLOUDY    74  69  85 NE9       30.06S
WILMINGTON     CLOUDY    78  71  79 N7        30.03F
$$

VAZ048-271700-
ELSEWHERE

CITY           SKY/WX    TMP DP  RH WIND       PRES   REMARKS
HARRISBURG PA  MOSUNNY   74  55  51 VRB7      30.12F
BALTIMORE      MOSUNNY   76  57  51 VRB7      30.12F
ANNAPOLIS      MOSUNNY   74  55  51 N7        30.12F
ANDREWS AFB    MOSUNNY   76  53  44 VRB5      30.13
PHILADELPHIA   PTSUNNY   77  53  43 NW6       30.10F
HENDERSON NC   SUNNY     76  56  50 NE7       30.13F
GREENSBORO     PTSUNNY   77  57  50 NE12      30.14S
ROCKY MOUNT    PTSUNNY   79  61  53 NE10G18   30.10F
$$

VAZ100-271700-
MARINE

STATION/POSITION TIME  TEMP    WIND        PRES    WAVE   SWELL
                       AIR SEA DIR/SP/G            HT/PER HT/PER
                 (UTC) (F)     (DEG/KT/KT) (MB)    (FT/S) (FT/S)
BRANDYWINE LGT   1500   69 74  350/  7/ 10 1019.9R
CAPE MAY NJ      1500   71 79  330/  7/ 10 1019.2R
LEWES DE         1500   70 75  340/ 10/ 12 1019.6R
15NM E FENWICK I 1550   71 78  320/ 12/ 14 1019.5R   3/ 9   2/ 9
OCEAN-CITY-INLET 1500   73 77   10/  6/  8 1018.7R
WACHAPREAGUE VA  1500   74 76   10/  7/  9 1019.8R
GOOSES REEF MD   1600   72 79   20/ 10/ 12 1021.3S
COVE POINT MD    1500   71      30/  7/ 12 1021.0R
SOLOMONS ISLAND  1500      80                N/A
BISHOPS HEAD MD  1500   73 74   10/  5/  9 1019.0R
PINEY POINT MD   1500          360/  6/  7   N/A
POTOMAC MD       1600   74 79  340/  6/ 10 1019.3R   1
CAMBRIDGE MD     1500   71 79  360/  4/  8 1019.3R
LEWISETTA VA     1500   72 78   10/  6/  8 1019.9R
RAPPAHANNOCK LGT 1500           20/ 14/ 15 1020.3R
STINGRAY PT      1600   74 80   30/ 10/ 12 1020.3R   2/ 3
YORK RVR RNG VA  1500   74      50/ 14/ 17 1019.4R
YORKTOWN VA      1500   75 80   50/ 10/ 15 1019.6R
JAMESTOWN VA     1600   75 82   30/  6/  8   N/A
DOMINION TERM VA 1500   76      40/  8/ 11 1019.8R
KIPTOPEKE VA     1500      79   40/  7/ 11   N/A
CAPE HENRY VA    1500   75      30/ 14/ 17   N/A
CHESAPEAKE LGHT  1500   75      40/ 14/ 16 1020.0R
WILLOUBY STN VA  1500   74      40/ 15/ 17 1020.9R
CAPE HENRY BUOY  1528      79                N/A     4/ 5   2/11
1ST LANDING BUOY 1600      79              1019.3F   2/ 4
CAPE CHARLES BUO 1526      79                N/A     4/10   3/10
OFFSHORE WE BUOY 1511      78                N/A     4/10   3/10
64NM E OF VA BCH 1550   77 80   40/ 16/ 17 1018.2S   4/10   2/10
DUCK PIER NC     1500   77 79   50/ 18/ 20 1017.9R
44100 DUCK FRF   1524      79                N/A     5/ 5   2/11
44056 DUCK FRF   1541      79                N/A     5/ 5   2/13
OREGON INLET NC  1500   78 79   30/ 14/ 20 1017.8R
HATTERAS NC      1500   75 81  100/ 14/ 17 1017.4R
DIAMOND SHLS NC  1550   78 82   50/ 17/ 19 1016.5R   5/10   3/10
CAPE LOOKOUT NC  1600   80      40/ 13/ 15 1016.6R
$$



USA.gov is the U.S. government's official web portal to all federal, state and local government web resources and services.